Regional Weather Roundup
Issued by NWS

Home | Current Version | Previous Version | Graphics & Text | Print | Product List | Glossary Off
Versions: 1 2 3 4 5 6 7 8 9 10 11 12 13 14 15 16 17 18 19 20 21 22 23 24 25 26 27 28 29 30 31 32 33 34 35 36 37 38 39 40 41 42 43 44 45 46 47 48 49 50

000
ASUS43 KMPX 291901
RWRMN
WEATHER ROUNDUP FOR MINNESOTA
NATIONAL WEATHER SERVICE TWIN CITIES/CHANHASSEN MN
200 PM CDT FRI JUL 29 2016


NOTE: "FAIR" INDICATES FEW OR NO CLOUDS BELOW 12,000 FEET WITH NO
SIGNIFICANT WEATHER AND/OR OBSTRUCTIONS TO VISIBILITY. N/A MEANS
CURRENT SKY AND/OR WEATHER CONDITIONS ARE NOT AVAILABLE.

MNZ060>063-068>070-292000-
   Twin Cities Metro

CITY           SKY/WX    TMP DP  RH WIND       PRES   REMARKS
TWIN CITIES    MOSUNNY   76  48  37 NE7       30.07S
ST PAUL        SUNNY     76  52  43 N12       30.07S
CRYSTAL        SUNNY     76  47  35 N8        30.06S
BLAINE         MOSUNNY   75  48  38 N13       30.08S
LAKEVILLE      SUNNY     75  54  46 N8        30.06F
EDEN PRAIRIE   SUNNY     78  49  35 N6        30.06S
LAKEVILLE      SUNNY     75  54  46 N8        30.06F
SOUTH ST PAUL  SUNNY     75  47  37 N6        30.06F
LAKE ELMO      FAIR      73  52  46 N5        30.08S
$$
MNZ001>005-007-008-013>017-022>024-027-028-292000-
   Northwest Minnesota

CITY           SKY/WX    TMP DP  RH WIND       PRES   REMARKS
BEMIDJI        SUNNY     75  55  48 CALM      30.08F
HALLOCK        CLOUDY    75  55  50 CALM      30.06F
ROSEAU         SUNNY     79  61  53 SW6       30.06F
WARROAD          N/A    N/A N/A N/A NE8         N/A
THIEF RVR FALL CLOUDY    75  53  46 S5        30.08F
CROOKSTON      CLOUDY    75  54  46 N5        30.07F
FOSSTON        SUNNY     77  54  44 SW5       30.09S
DETROIT LAKES  MOSUNNY   77  57  50 W9        30.09F
MOORHEAD       SUNNY     77  57  50 CALM      30.07F
PARK RAPIDS    PTSUNNY   77  56  48 VRB7      30.08F
MAHNOMEN       FAIR      76  55  48 CALM      30.08F
$$
MNZ006-009>011-018-025>026-292000-
   North Central Minnesota

CITY           SKY/WX    TMP DP  RH WIND       PRES   REMARKS
BAUDETTE       MOSUNNY   79  55  43 SE5       30.07F
FLAG ISLAND    SUNNY     75  50  41 SE5       30.07F
INTL FALLS     CLOUDY    75  57  53 CALM      30.08F
WASKISH        CLOUDY    73  61  64 W6        30.08S
BIG FORK       SUNNY     77  55  47 S7        30.10S
LONGVILLE      SUNNY     73  55  53 CALM      30.10S
GRAND RAPIDS   MOSUNNY   72  54  53 S3        30.12F
CRANE LAKE     MOSUNNY   73  52  46 SE5       30.11S
ORR            MOSUNNY   75  52  43 CALM      30.07F
COOK           MOSUNNY   75  54  46 CALM      30.10F
WALKER         FAIR      75  59  57 SE6       30.08F
$$
MNZ012-019>021-037-292000-
   Northeast Minnesota

CITY           SKY/WX    TMP DP  RH WIND       PRES   REMARKS
DULUTH         MOSUNNY   71  49  45 VRB7      30.13R
ELY            PTSUNNY   73  48  40 NE5       30.10S
HIBBING        PTSUNNY   74  51  44 E6        30.11S
EVELETH        MOSUNNY   76  47  36 CALM      30.12S
DULUTH HARBOR  SUNNY     70  57  64 NE8       30.12S
TWO HARBORS    SUNNY     75  55  50 E6        30.10S
SILVER BAY     SUNNY     73  52  46 SE6       30.11R
GRAND MARAIS     N/A     68  55  63 CALM      30.10S
G MARAIS ARPRT SUNNY     70  48  46 S7        30.14S
$$
MNZ029>031-032-039>041-046>048-054>057-064-292000-
   West Central Minnesota

CITY           SKY/WX    TMP DP  RH WIND       PRES   REMARKS
FERGUS FALLS   PTSUNNY   75  63  64 SW9       30.08F
WHEATON        SUNNY     79  63  57 S7        30.10F
MORRIS         MOSUNNY   79  59  50 S5        30.08F
ALEXANDRIA     PTSUNNY   75  54  47 VRB6      30.11F
ELBOW LAKE     FAIR      77  63  62 SW9       30.09F
WADENA         MOSUNNY   75  59  57 S5        30.09F
GLENWOOD       SUNNY     77  54  44 CALM      30.11F
APPLETON       SUNNY     77  54  44 CALM      30.08F
BENSON         MOSUNNY   77  48  36 E3        30.09F
ORTONVILLE     SUNNY     77  57  50 CALM      30.08F
MADISON        SUNNY     75  55  50 CALM      30.08F
WILLMAR        FAIR      77  54  44 NE7       30.10F
$$
MNZ033>034-036-042>043-049>051-058-059-292000-
   Central Minnesota

CITY           SKY/WX    TMP DP  RH WIND       PRES   REMARKS
ST CLOUD       SUNNY     76  53  44 VRB5      30.09F
SAUK CENTRE    FAIR      75  55  48 NE5       30.10F
PAYNESVILLE    SUNNY     74  53  47 N5        30.10F
AITKIN         PTSUNNY   75  52  43 CALM      30.10S
PINE RIVER     MOSUNNY   73  57  56 SE5       30.13S
BRAINERD       SUNNY     74  53  48 VRB6      30.11S
STAPLES        SUNNY     75  52  43 CALM      30.09F
LONG PRAIRIE   FAIR      73  54  49 CALM      30.11F
LITTLE FALLS   SUNNY     73  50  43 E3        30.10F
LITCHFIELD     SUNNY     75  55  50 N6        30.09F
BUFFALO        SUNNY     75  50  41 NE10      30.09F
MAPLE LAKE     SUNNY     76  57  50 E7        30.10S
HUTCHINSON     CLOUDY    76  57  50 NE8       30.09F
$$
MNZ037-044-045-052-053-292000-
   East Central Minnesota

CITY           SKY/WX    TMP DP  RH WIND       PRES   REMARKS
PRINCETON      SUNNY     75  52  43 N10       30.10S
MORA           SUNNY     73  50  43 E5        30.11F
CAMBRIDGE      SUNNY     75  55  50 NE5       30.07F
RUSH CITY      SUNNY     74  53  48 NE6       30.09F
MOOSE LAKE     SUNNY     73  50  43 NE3       30.09S
HINCKLEY       FAIR      73  54  49 E5        30.10S
CLOQUET        SUNNY     72  43  35 NE7       30.12S
MCGREGOR       PTSUNNY   73  54  49 CALM      30.11F
$$
MNZ071>073-080-081-089-090-097-098-292000-
   Southwest Minnesota

CITY           SKY/WX    TMP DP  RH WIND       PRES   REMARKS
MONTEVIDEO     SUNNY     79  57  47 E5        30.10F
GRANITE FALLS  SUNNY     79  57  47 E5        30.09F
CANBY          MOSUNNY   77  54  43 E5        30.10F
MARSHALL       MOSUNNY   75  57  53 E6        30.08F
REDWOOD FALLS  SUNNY     78  53  41 NE7       30.07F
OLIVIA         SUNNY     77  55  47 NE6       30.08F
PIPESTONE      SUNNY     75  54  46 NE5       30.10S
WINDOM         MOSUNNY   73  55  53 N10G16    30.08F
WORTHINGTON    PTSUNNY   75  59  57 N10       30.09F
JACKSON        PTSUNNY   73  55  53 N8        30.08F
TRACY          SUNNY     76  58  54 NE7       30.09F
SLAYTON        MOSUNNY   73  59  61 NE8       30.10F HAZE
$$
MNZ065>067-074>077-082>085-091>093-292000-
   South Central Minnesota

CITY           SKY/WX    TMP DP  RH WIND       PRES   REMARKS
MANKATO        MOSUNNY   73  57  56 N6        30.06F
NEW ULM        SUNNY     75  50  41 E9G20     30.06F
ST JAMES         N/A     72  54  53 N6        30.07F
FAIRMONT       PTSUNNY   75  63  64 NE8       30.05F
GLENCOE        SUNNY     76  57  51 N9        30.07F
FARIBAULT      MOSUNNY   73  57  56 N7        30.06F
OWATONNA       MOSUNNY   75  61  60 N8        30.05F
WASECA         PTSUNNY   73  61  64 N8        30.07F
ALBERT LEA     CLOUDY    73  63  68 NE9       30.05S
$$
MNZ078>079-086>088-094>096-292000-
   Southeast Minnesota

CITY           SKY/WX    TMP DP  RH WIND       PRES   REMARKS
ROCHESTER      SUNNY     74  62  66 NE14      30.05F
RED WING       SUNNY     77  54  44 NW6       30.04S
STANTON        CLOUDY    77  57  50 VRB6      30.05S
DODGE CENTER   MOSUNNY   75  57  53 N7        30.05F
WINONA         CLOUDY    75  59  57 NE6       30.03F
AUSTIN         SUNNY     73  59  60 NE12      30.03F
PRESTON          N/A    N/A N/A N/A MISG        N/A
$$
ABBREVIATIONS USED IN REMARKS
   TC - TEMPERATURES IN CELSIUS
  WCI - WIND CHILL INDEX
   HX - HEAT INDEX
  VSB - VISIBILITY
$$




USA.gov is the U.S. government's official web portal to all federal, state and local government web resources and services.